IST,Max TemperatureF,Mean TemperatureF,Min TemperatureF,Max Dew PointF,MeanDew PointF,Min DewpointF,Max Humidity, Mean Humidity, Min Humidity, Max Sea Level PressureIn, Mean Sea Level PressureIn, Min Sea Level PressureIn, Max VisibilityMiles, Mean VisibilityMiles, Min VisibilityMiles, Max Wind SpeedMPH, Mean Wind SpeedMPH, Max Gust SpeedMPH,PrecipitationIn, CloudCover, Events, WindDirDegrees
2013-7-1,65,55,45,52,47,45,100,76,43,30.12,30.04,29.95,19,7,6,16,7,28,0.01,4,Rain,246
2013-7-2,64,57,50,61,54,46,100,95,82,29.92,29.67,29.53,16,6,0,17,11,,0.02,6,Fog-Rain,218
2013-7-3,66,59,52,60,54,45,100,87,65,29.92,29.82,29.62,12,6,1,21,12,,0.00,6,Rain,254
2013-7-4,66,60,51,57,52,48,100,79,52,30.30,30.07,29.89,19,5,0,20,15,,0.00,4,Fog-Rain,259
2013-7-5,63,54,46,54,50,46,100,83,64,30.40,30.36,30.30,19,6,1,15,7,,0.00,2,Fog,223
2013-7-6,69,60,50,63,57,51,100,88,73,30.48,30.40,30.36,19,6,2,12,7,,0.00,5,Rain,220
2013-7-7,76,66,57,64,60,57,100,84,57,30.57,30.52,30.48,19,6,0,12,7,,0.00,3,Fog,34
2013-7-8,73,66,59,63,60,55,94,77,61,30.57,30.53,30.48,16,7,2,12,7,,0.00,1,,87
2013-7-9,76,68,61,65,60,54,88,73,59,30.48,30.41,30.36,19,7,6,10,6,,0.00,2,Fog,83
2013-7-10,77,68,59,64,60,55,100,72,54,30.36,30.32,30.29,19,6,0,10,6,,0.00,1,Fog,77
2013-7-11,72,65,58,64,60,55,100,83,63,30.32,30.29,30.27,19,6,0,14,7,,0.00,2,Fog,106
2013-7-12,75,66,57,59,56,51,100,67,40,30.31,30.29,30.27,19,8,4,9,4,,0.00,1,Fog,222
2013-7-13,78,68,58,66,61,57,100,77,45,30.33,30.31,30.30,19,8,1,13,9,,0.00,3,,281
2013-7-14,76,68,59,66,62,57,100,89,48,30.34,30.30,30.26,19,5,0,16,6,,0.00,5,Fog,39
2013-7-15,72,64,55,59,54,52,94,72,44,30.31,30.28,30.24,19,9,6,16,10,,0.00,4,,320
2013-7-16,72,64,57,59,54,52,88,69,38,30.30,30.28,30.26,19,8,6,13,7,,0.00,4,,286
2013-7-17,73,66,58,59,57,55,89,73,48,30.36,30.32,30.27,19,8,6,12,8,,0.00,4,,303
2013-7-18,75,66,58,61,58,55,100,77,53,30.37,30.35,30.33,17,6,0,16,11,,0.00,4,Fog,42
2013-7-19,75,66,57,63,57,54,94,70,37,30.34,30.27,30.21,19,7,6,16,8,,0.00,1,,79
2013-7-20,73,67,61,63,59,57,94,75,57,30.23,30.18,30.14,16,6,6,17,9,,0.00,1,,97
2013-7-21,66,62,59,63,59,55,100,87,68,30.15,30.06,29.98,17,6,6,16,10,,0.00,4,,93
2013-7-22,67,63,59,64,61,57,100,95,82,30.01,29.93,29.89,16,5,0,10,8,,0.02,6,Fog-Rain,138
2013-7-23,66,62,58,63,61,57,100,95,81,29.91,29.84,29.80,15,6,3,13,7,,0.12,6,Rain,187
2013-7-24,64,61,58,63,61,57,100,97,88,29.84,29.79,29.74,11,6,4,18,9,30,0.24,6,Rain-Thunderstorm,178
2013-7-25,66,60,55,61,57,54,100,89,73,29.83,29.81,29.77,19,6,2,15,8,,0.02,4,Rain,246
2013-7-26,67,62,56,59,57,54,100,87,64,29.85,29.83,29.80,19,6,2,13,6,,0.00,3,Rain,160
2013-7-27,66,60,55,61,58,55,100,91,73,29.81,29.70,29.62,12,6,6,18,7,,0.12,4,Rain,156
2013-7-28,67,61,55,63,58,55,100,91,72,29.62,29.57,29.53,19,7,4,14,6,,0.31,4,Fog-Rain,169
2013-7-29,68,61,54,59,54,50,100,82,56,29.89,29.74,29.62,19,6,1,18,10,,0.00,3,Rain,233
2013-7-30,68,59,50,59,54,50,100,86,60,29.92,29.86,29.83,6,6,2,20,7,,0.08,5,Rain,233
2013-7-31,64,59,54,64,60,54,100,99,88,29.92,29.78,29.71,16,3,0,21,10,30,0.55,7,Fog-Rain,164